Wind_Speed
14 12 11 9 7 7 6 4 3 3 1 2 1 2 3 4 5 6 6 7 7 7 7 7 8 8 8 8 9 9 8 7 6 5 5 6 5 5 5 4 4 3 3 3
15 14 12 9 8 7 6 5 4 3 2 2 2 3 3 3 5 5 5 6 6 6 7 7 7 9 8 8 9 9 8 7 6 6 5 5 5 5 4 4 4 3 4 4
16 14 13 11 9 8 7 6 6 5 5 5 5 4 4 4 5 6 4 5 6 5 6 6 7 7 8 8 9 9 8 6 6 5 5 4 4 4 4 4 3 3 4 4
17 16 16 13 11 11 9 8 8 7 7 8 8 8 6 7 6 5 6 6 6 7 8 7 7 7 8 8 8 8 7 7 6 5 5 5 4 4 4 4 3 3 4 5
17 18 17 15 13 12 11 10 9 9 9 10 10 10 7 8 7 6 7 7 7 8 8 8 7 7 8 8 8 8 7 7 6 6 5 5 4 4 4 4 4 4 4 5
17 18 18 17 15 14 14 13 12 12 12 13 10 10 8 7 8 7 7 8 8 9 9 8 8 8 8 8 8 8 8 7 7 7 6 5 5 5 5 5 4 5 5 5
18 18 17 17 16 15 16 16 15 15 14 12 10 12 11 9 8 9 9 9 9 9 9 8 8 8 8 8 8 8 8 8 8 7 6 6 5 6 5 5 5 6 6 6
18 17 16 15 15 15 15 16 15 15 14 13 13 14 12 11 9 9 10 11 9 8 9 9 9 9 8 8 9 8 8 8 8 8 7 7 6 6 7 6 6 6 6 6
18 16 15 15 14 15 16 15 15 16 16 15 14 12 13 12 11 10 11 10 9 9 10 10 11 9 9 8 8 9 9 9 9 9 8 8 7 7 7 7 6 6 7 7
18 17 17 16 17 17 17 15 16 16 15 15 14 13 13 12 11 11 11 11 11 11 11 11 10 10 8 8 8 8 9 9 9 9 9 8 8 9 9 9 8 8 8 9
19 19 18 19 19 17 18 18 18 17 17 17 16 14 13 14 13 12 11 11 12 12 12 11 11 12 10 8 9 9 10 10 10 10 10 10 10 10 10 10 11 10 11 11
21 21 21 20 19 18 19 19 19 18 17 18 19 16 15 16 16 14 13 13 13 12 13 13 13 14 11 10 11 11 11 11 12 11 11 12 12 12 12 12 12 12 13 13
24 24 23 21 21 21 22 21 19 19 19 19 19 17 17 17 18 17 16 15 15 14 15 15 14 14 14 14 12 12 12 13 13 13 13 12 13 14 14 14 14 14 15 15
25 26 25 24 23 22 23 23 21 21 21 21 20 19 18 19 19 19 19 19 17 16 16 16 16 16 15 14 14 14 13 14 14 15 15 15 15 16 15 15 15 15 16 16
28 28 27 25 25 26 25 24 23 23 23 23 22 21 19 19 19 19 19 19 19 18 17 17 17 17 17 16 16 16 15 15 16 16 16 16 16 17 17 16 16 16 16 17
29 29 28 28 27 28 27 25 24 25 24 24 24 22 21 20 21 20 19 19 18 18 18 17 17 17 17 17 17 17 16 17 17 18 18 18 18 18 18 18 17 17 18 18
32 31 31 31 30 29 29 26 25 25 23 24 24 23 23 22 22 21 20 20 20 20 20 20 18 19 19 19 19 18 18 18 18 18 19 19 19 19 18 18 18 19 20 20
32 32 32 32 32 33 29 27 27 25 24 24 24 23 23 23 23 22 21 21 21 21 21 21 21 22 21 21 20 20 20 20 20 20 19 20 20 19 19 19 20 21 22 23
33 33 33 32 33 33 29 27 26 26 26 25 25 24 23 23 23 23 23 23 23 23 22 22 22 22 22 23 23 22 23 23 22 21 20 20 21 21 21 21 22 23 24 24
33 33 33 33 34 33 30 29 28 27 28 27 27 26 25 24 24 24 24 24 24 23 23 22 23 24 24 23 24 24 23 23 23 23 22 21 21 22 23 23 24 24 25 25
35 34 34 33 34 33 30 29 28 29 28 28 28 28 28 27 27 26 25 26 24 23 23 23 24 24 24 24 24 24 24 23 24 23 23 22 22 23 24 25 25 25 26 26
37 34 34 34 34 33 29 29 30 29 28 28 27 28 28 29 28 27 27 26 26 26 25 25 25 26 24 24 25 25 25 26 25 25 24 24 24 25 25 25 26 26 26 26
36 35 34 34 34 32 31 31 32 31 31 30 29 29 29 28 27 27 28 28 28 29 28 27 27 26 26 26 26 27 27 27 27 27 27 27 27 27 27 27 27 28 28 28
34 34 35 34 34 32 31 31 31 31 30 30 29 29 29 27 27 27 28 28 29 29 28 29 29 29 29 29 28 29 29 29 28 28 28 28 28 28 28 29 29 29 29 29
34 33 34 33 33 33 32 31 31 30 30 30 29 28 28 29 29 30 30 30 30 30 30 31 31 31 30 30 30 29 29 29 29 28 29 29 29 29 29 29 29 29 29 29
32 33 33 34 34 34 32 32 32 31 31 31 31 30 29 29 30 31 31 32 32 32 32 32 32 31 31 30 30 30 30 30 29 29 29 29 29 29 29 29 29 29 29 28
Wind_Direction
197 197 189 186 196 193 191 189 192 186 165 197 237 340 352 360 15 28 20 15 15 15 11 9 8 4 4 4 1 0 359 355 356 349 338 337 332 329 325 324 321 324 323 319
204 201 196 194 204 213 215 225 240 232 244 281 301 310 312 317 344 356 11 14 9 9 6 360 359 0 1 358 354 353 352 347 346 345 343 345 339 335 326 323 310 309 307 307
208 207 204 203 211 224 225 233 246 260 254 279 291 286 288 306 322 333 346 1 358 352 356 352 347 357 357 352 347 349 347 338 335 337 342 344 333 329 329 317 302 296 302 303
211 209 210 209 216 227 225 223 248 266 269 275 284 277 280 295 298 308 320 332 342 343 348 341 338 342 350 347 343 340 341 340 340 338 335 335 329 323 320 314 301 286 297 298
214 213 214 215 218 227 227 229 245 255 262 270 270 274 282 285 280 297 306 315 323 328 331 333 336 339 340 338 334 330 330 330 330 334 335 332 331 329 323 313 304 297 300 294
220 220 223 221 215 220 228 233 236 243 250 258 264 265 273 277 276 284 299 306 316 320 318 319 325 331 332 332 328 327 327 322 324 321 319 321 323 316 313 301 292 288 285 285
220 222 225 226 221 220 226 232 236 240 244 247 252 258 265 273 270 284 292 298 302 309 307 312 313 316 322 323 322 320 322 317 319 316 311 314 318 314 304 288 283 278 275 281
221 222 224 231 230 226 231 239 243 246 244 241 247 257 263 271 270 276 284 290 288 300 304 309 315 308 309 310 312 312 314 313 312 314 312 309 309 312 312 301 289 286 289 288
225 222 223 228 230 231 235 241 243 249 250 247 251 260 265 266 266 277 287 291 292 301 302 304 309 305 305 305 306 308 304 308 311 311 307 302 297 297 303 302 297 293 294 290
229 227 223 225 225 228 236 243 243 246 251 254 253 260 273 273 274 279 288 291 290 291 300 308 311 312 313 307 313 312 308 307 306 303 298 294 293 290 291 292 292 291 292 290
228 230 223 225 228 230 235 241 245 250 252 255 258 260 270 276 273 280 289 291 289 286 294 298 303 309 313 312 311 312 308 306 304 301 297 291 290 291 290 289 291 290 287 287
232 234 230 229 230 230 235 241 243 246 250 256 260 260 270 274 271 275 282 283 282 288 295 299 299 300 298 300 305 307 305 302 300 296 292 288 285 286 285 282 283 284 285 286
231 234 235 232 231 232 236 238 242 248 251 255 261 263 269 269 269 275 277 281 286 289 293 295 296 298 293 295 294 296 294 295 293 289 289 289 286 285 284 282 283 286 288 289
233 236 238 237 236 239 240 240 241 246 251 257 261 263 265 267 272 275 279 283 287 287 291 294 296 297 293 292 292 294 294 290 290 289 287 286 286 284 283 282 282 285 288 289
232 237 240 242 238 236 239 243 244 248 253 258 260 261 263 269 274 279 278 281 286 287 289 294 296 296 295 294 293 292 292 291 289 287 285 285 286 284 282 280 280 283 285 287
234 238 240 242 241 239 238 241 245 247 250 254 256 258 262 267 269 272 273 277 282 284 288 290 291 294 296 293 289 289 288 289 289 287 286 285 285 283 281 281 280 281 284 287
232 235 237 240 241 243 240 240 244 247 250 249 253 256 260 263 266 269 273 275 280 281 285 288 286 288 292 293 292 288 285 288 288 288 287 286 286 286 282 283 284 286 287 288
232 234 237 239 241 242 243 241 244 246 247 249 253 255 256 261 266 271 273 276 278 279 281 284 285 286 286 288 290 288 286 286 286 286 287 286 284 283 284 284 284 286 288 289
234 235 237 238 241 244 241 241 244 245 246 248 248 252 258 264 268 269 271 274 276 279 281 284 285 284 284 284 286 285 287 285 284 283 284 284 282 282 283 283 284 286 288 289
234 236 238 241 244 244 242 243 245 246 248 246 247 253 257 260 263 267 271 274 275 276 278 281 283 285 285 285 284 285 284 282 282 281 280 282 282 281 284 285 285 287 287 288
232 236 239 242 246 248 246 245 246 248 250 250 251 255 258 260 267 270 273 272 272 273 275 277 280 283 284 284 283 282 283 282 284 284 283 282 282 281 283 285 286 286 286 287
232 235 238 241 244 247 247 246 246 250 251 252 254 256 258 261 265 268 270 272 274 275 275 277 280 281 283 283 283 285 283 283 284 284 283 283 283 280 281 284 286 287 287 287
235 236 239 241 244 246 247 248 248 248 251 252 251 254 257 258 262 265 268 271 274 276 276 278 279 279 282 284 284 284 284 284 283 283 282 283 282 281 281 282 284 285 287 288
236 238 240 242 244 248 249 250 251 249 250 251 254 258 259 260 263 265 267 269 272 274 275 277 280 280 282 283 284 284 283 283 283 282 281 281 282 283 284 283 286 286 286 286
236 237 239 242 245 246 249 250 252 253 253 255 256 258 262 265 267 268 268 269 272 274 276 277 279 280 280 281 281 282 283 283 282 281 279 280 281 283 284 285 286 286 285 285
236 237 240 241 243 246 248 250 251 253 254 257 258 260 263 265 267 269 269 269 271 275 277 278 279 280 279 279 280 279 280 281 281 280 280 280 280 282 284 285 285 285 286 286
Height
5912 5914 5915 5916 5917 5917 5918 5919 5919 5919 5920 5920 5920 5921 5922 5921 5921 5920 5920 5920 5919 5918 5917 5916 5914 5913 5912 5911 5909 5908 5906 5905 5904 5903 5902 5901 5900 5899 5898 5897 5896 5896 5896 5895
5910 5912 5914 5914 5915 5915 5916 5917 5917 5918 5919 5919 5919 5920 5920 5920 5920 5920 5920 5920 5919 5918 5916 5915 5914 5913 5912 5911 5909 5907 5906 5904 5903 5902 5901 5900 5899 5898 5897 5897 5896 5895 5895 5895
5907 5910 5910 5911 5913 5913 5914 5916 5916 5917 5918 5918 5919 5919 5919 5919 5919 5919 5919 5919 5918 5916 5915 5914 5913 5912 5911 5910 5909 5907 5905 5904 5902 5901 5900 5899 5898 5897 5897 5896 5895 5894 5894 5894
5904 5906 5907 5908 5910 5911 5913 5915 5915 5916 5917 5917 5918 5917 5918 5918 5918 5918 5917 5917 5917 5915 5914 5913 5912 5911 5910 5909 5908 5906 5904 5903 5901 5900 5899 5898 5897 5896 5896 5895 5894 5893 5893 5892
5901 5903 5905 5906 5908 5910 5911 5912 5913 5914 5914 5915 5915 5916 5916 5916 5916 5916 5915 5915 5915 5914 5913 5912 5911 5910 5908 5907 5906 5905 5903 5902 5901 5899 5898 5897 5896 5895 5894 5893 5893 5892 5891 5891
5898 5900 5901 5903 5905 5907 5908 5910 5910 5911 5912 5913 5913 5913 5914 5914 5914 5914 5913 5913 5913 5912 5911 5910 5909 5908 5907 5906 5905 5903 5902 5900 5899 5898 5897 5895 5894 5893 5893 5892 5891 5890 5889 5889
5894 5896 5898 5900 5901 5903 5905 5907 5908 5908 5909 5910 5910 5910 5911 5910 5911 5911 5910 5910 5910 5909 5908 5907 5906 5905 5904 5904 5903 5901 5900 5898 5897 5896 5895 5894 5893 5892 5891 5890 5889 5888 5887 5887
5890 5893 5895 5897 5899 5900 5902 5903 5905 5906 5906 5906 5906 5906 5907 5907 5907 5907 5907 5907 5906 5906 5906 5904 5903 5903 5902 5901 5900 5899 5898 5896 5895 5894 5893 5892 5892 5890 5889 5888 5887 5887 5886 5885
5887 5890 5892 5894 5896 5897 5898 5899 5901 5902 5902 5902 5902 5903 5904 5903 5904 5904 5904 5903 5903 5903 5902 5901 5900 5900 5899 5898 5897 5896 5895 5894 5893 5892 5891 5890 5889 5889 5887 5886 5886 5885 5884 5884
5883 5886 5888 5889 5891 5892 5894 5895 5897 5898 5898 5898 5899 5900 5900 5899 5900 5901 5900 5900 5900 5900 5899 5898 5897 5896 5895 5894 5894 5893 5893 5891 5890 5889 5888 5887 5887 5886 5885 5884 5884 5883 5882 5881
5878 5881 5883 5885 5886 5888 5890 5891 5892 5893 5894 5894 5895 5898 5897 5897 5897 5897 5896 5896 5896 5896 5896 5896 5895 5894 5893 5892 5891 5891 5890 5889 5888 5886 5885 5885 5884 5883 5882 5882 5881 5880 5879 5878
5873 5875 5877 5880 5883 5884 5885 5887 5888 5890 5890 5890 5890 5895 5893 5892 5891 5892 5892 5892 5892 5892 5892 5892 5891 5890 5890 5889 5888 5887 5886 5886 5885 5883 5882 5881 5881 5880 5879 5878 5877 5877 5876 5875
5867 5869 5872 5875 5879 5879 5880 5882 5883 5885 5886 5886 5886 5890 5888 5888 5887 5888 5888 5889 5889 5889 5889 5888 5887 5887 5886 5886 5885 5884 5883 5882 5881 5880 5879 5877 5876 5875 5875 5874 5873 5873 5872 5871
5861 5863 5866 5869 5872 5874 5875 5877 5879 5880 5880 5881 5882 5883 5884 5883 5884 5884 5885 5885 5884 5884 5884 5884 5883 5882 5882 5882 5881 5880 5879 5878 5877 5876 5874 5873 5872 5871 5870 5869 5869 5868 5867 5866
5855 5857 5860 5863 5866 5868 5869 5871 5873 5874 5875 5876 5877 5877 5879 5879 5879 5879 5880 5880 5880 5880 5880 5880 5879 5879 5878 5878 5876 5875 5874 5874 5873 5872 5870 5869 5867 5866 5865 5864 5864 5863 5862 5861
5848 5851 5854 5857 5859 5861 5863 5865 5866 5868 5869 5870 5871 5872 5873 5873 5874 5874 5875 5876 5876 5876 5876 5875 5875 5875 5874 5873 5872 5871 5870 5869 5867 5866 5865 5864 5862 5861 5860 5859 5858 5857 5856 5855
5841 5844 5847 5850 5852 5854 5856 5859 5861 5862 5863 5864 5865 5867 5868 5868 5868 5869 5870 5870 5870 5870 5870 5870 5870 5869 5869 5867 5866 5865 5864 5863 5862 5861 5859 5858 5857 5856 5855 5854 5853 5852 5850 5849
5834 5836 5839 5842 5846 5846 5852 5853 5854 5855 5857 5858 5859 5860 5862 5863 5864 5864 5864 5864 5864 5864 5863 5863 5863 5863 5862 5862 5861 5860 5859 5858 5857 5855 5854 5853 5851 5850 5850 5849 5848 5846 5845 5843
5826 5829 5832 5834 5836 5839 5844 5846 5847 5849 5850 5852 5853 5854 5856 5856 5857 5858 5858 5858 5858 5857 5856 5856 5857 5857 5856 5856 5855 5853 5852 5851 5850 5849 5848 5847 5846 5844 5844 5843 5841 5840 5838 5837
5819 5821 5825 5826 5828 5831 5837 5839 5840 5843 5843 5846 5846 5848 5849 5850 5851 5852 5852 5852 5852 5851 5850 5850 5850 5850 5850 5849 5848 5847 5845 5845 5844 5843 5841 5840 5839 5838 5837 5836 5834 5833 5831 5829
5810 5813 5816 5819 5821 5824 5828 5831 5833 5835 5837 5839 5839 5841 5842 5843 5844 5845 5845 5845 5844 5844 5844 5844 5844 5844 5843 5842 5841 5840 5838 5838 5837 5836 5835 5833 5832 5831 5830 5828 5827 5825 5823 5822
5802 5805 5808 5811 5813 5818 5821 5823 5826 5827 5829 5831 5832 5833 5835 5836 5837 5837 5838 5838 5837 5838 5837 5837 5837 5836 5835 5834 5833 5832 5831 5830 5829 5828 5827 5826 5825 5824 5822 5821 5819 5817 5816 5814
5794 5798 5800 5804 5807 5810 5813 5815 5817 5819 5821 5823 5825 5826 5827 5828 5829 5830 5830 5831 5831 5830 5830 5829 5829 5828 5827 5827 5825 5824 5823 5822 5821 5820 5819 5818 5817 5816 5814 5812 5811 5809 5807 5806
5786 5790 5793 5795 5798 5801 5804 5806 5808 5810 5812 5814 5816 5818 5819 5820 5821 5822 5823 5823 5823 5823 5822 5821 5821 5820 5819 5818 5817 5816 5815 5813 5812 5811 5811 5810 5809 5807 5805 5804 5802 5801 5799 5797
5778 5782 5785 5787 5790 5793 5796 5798 5800 5802 5804 5806 5808 5810 5811 5812 5813 5814 5815 5815 5815 5814 5814 5813 5812 5811 5809 5808 5807 5806 5805 5804 5803 5802 5801 5801 5799 5798 5796 5795 5793 5792 5790 5788
5771 5774 5777 5779 5783 5785 5788 5790 5792 5794 5797 5798 5800 5801 5802 5803 5804 5805 5805 5806 5806 5805 5804 5803 5803 5802 5800 5799 5798 5798 5797 5795 5793 5793 5792 5791 5790 5789 5787 5786 5785 5783 5781 5779